Weather History for Huntingburg, IN

Change the Weather History Date:

Saturday, June 29, 2013

  Actual Average Record
Temperature  
Mean Temperature 72 °F -  
Max Temperature 80 °F 82 °F 105 °F (2012)
Min Temperature 64 °F 63 °F 59 °F (2004)
Cooling Degree Days 7    
Growing Degree Days 22 (Base 50)    
Moisture  
Dew Point 63 °F    
Average Humidity 73    
Maximum Humidity 94    
Minimum Humidity 54    
Precipitation  
Precipitation 0.05 in - - ()
Sea Level Pressure  
Sea Level Pressure 29.65 in    
Wind  
Wind Speed 11 mph (West)    
Max Wind Speed 16 mph    
Max Gust Speed 24 mph    
Visibility 10 miles    
Events Thunderstorm    
Averages and records for this station are not official NWS values.
T = Trace of Precipitation, MM = Missing Value Source: NWS Daily Summary

Daily Weather History Graph

Daily Weather History Graph

Search for Another Location

Airport:

Trip Planner

Search our weather history database for the weather conditions in past years. The results will help you decide how hot, cold, wet, or windy it might be!

Date:

Astronomy

Jun. 29, 2013 Rise Set
Actual Time 6:27 AM EDT 9:15 PM EDT
Civil Twilight 5:55 AM EDT 9:46 PM EDT
Nautical Twilight 5:16 AM EDT 10:26 PM EDT
Astronomical Twilight 4:31 AM EDT 11:11 PM EDT
Moon 12:49 AM EDT (6/29) 1:31 PM EDT (6/29)
Length of Visible Light 15h 50m
Length of Day
14h 47m
Waning Gibbous, 56% of the Moon is Illuminated
Jun 29
Waning Gibbous
Jun 30
Last Quarter
Jul 8
New
Jul 15
First Quarter
Jul 22
Full

Hourly Weather History & Observations

Time (EDT) Temp. Heat Index Dew Point Humidity Pressure Visibility Wind Dir Wind Speed Gust Speed Precip Events Conditions
3:35 PM 80.6 °F 82.3 °F 64.4 °F 58% 29.63 in 10.0 mi WSW 15.0 mph - N/A   Partly Cloudy
3:55 PM 80.6 °F 82.3 °F 64.4 °F 58% 29.63 in 10.0 mi WSW 13.8 mph 18.4 mph N/A   Scattered Clouds
4:16 PM 80.6 °F 82.3 °F 64.4 °F 58% 29.63 in 10.0 mi WSW 12.7 mph - N/A   Scattered Clouds
4:35 PM 80.6 °F 81.8 °F 62.6 °F 54% 29.62 in 10.0 mi West 12.7 mph 18.4 mph N/A   Partly Cloudy
4:55 PM 80.6 °F 81.8 °F 62.6 °F 54% 29.62 in 10.0 mi West 15.0 mph 18.4 mph N/A   Partly Cloudy
5:15 PM 80.6 °F 81.8 °F 62.6 °F 54% 29.62 in 10.0 mi West 12.7 mph - N/A   Partly Cloudy
5:35 PM 78.8 °F - 62.6 °F 57% 29.62 in 10.0 mi West 15.0 mph - N/A   Mostly Cloudy
5:55 PM 80.6 °F 81.8 °F 62.6 °F 54% 29.62 in 10.0 mi West 16.1 mph 21.9 mph N/A   Mostly Cloudy
6:15 PM 80.6 °F 81.8 °F 62.6 °F 54% 29.61 in 10.0 mi WNW 10.4 mph 17.3 mph N/A   Scattered Clouds
6:35 PM 78.8 °F - 62.6 °F 57% 29.62 in 10.0 mi NW 10.4 mph 16.1 mph N/A Thunderstorm Scattered Clouds
6:55 PM 69.8 °F - 60.8 °F 73% 29.63 in 8.0 mi NNW 15.0 mph 24.2 mph 0.05 in   Mostly Cloudy
7:15 PM 69.8 °F - 60.8 °F 73% 29.64 in 10.0 mi NW 8.1 mph - N/A Thunderstorm Partly Cloudy
7:35 PM 69.8 °F - 62.6 °F 78% 29.64 in 10.0 mi WNW 5.8 mph - N/A   Clear
7:55 PM 69.8 °F - 62.6 °F 78% 29.64 in 10.0 mi WNW 6.9 mph - N/A   Clear
8:15 PM 69.8 °F - 62.6 °F 78% 29.64 in 10.0 mi Calm Calm - N/A   Clear
8:35 PM 69.8 °F - 62.6 °F 78% 29.63 in 10.0 mi Calm Calm - N/A   Clear
8:55 PM 68.0 °F - 62.6 °F 83% 29.65 in 10.0 mi WSW 4.6 mph - N/A   Clear
9:15 PM 68.0 °F - 62.6 °F 83% 29.67 in 10.0 mi West 8.1 mph - N/A   Clear
9:35 PM 68.0 °F - 62.6 °F 83% 29.68 in 10.0 mi West 8.1 mph - N/A   Partly Cloudy
9:55 PM 68.0 °F - 62.6 °F 83% 29.69 in 10.0 mi West 8.1 mph - N/A   Partly Cloudy
10:15 PM 66.2 °F - 62.6 °F 88% 29.69 in 10.0 mi WNW 4.6 mph - N/A   Mostly Cloudy
10:35 PM 66.2 °F - 62.6 °F 88% 29.68 in 10.0 mi West 5.8 mph - N/A   Scattered Clouds
10:55 PM 64.4 °F - 62.6 °F 94% 29.69 in 10.0 mi West 4.6 mph - N/A   Clear
11:15 PM 64.4 °F - 62.6 °F 94% 29.69 in 10.0 mi West 3.5 mph - N/A   Clear
11:35 PM 64.4 °F - 62.6 °F 94% 29.68 in 10.0 mi West 4.6 mph - N/A   Clear
11:55 PM 64.4 °F - 62.6 °F 94% 29.68 in 8.0 mi West 6.9 mph - N/A   Scattered Clouds